Other Public Products
Issued by NWS Grand Forks, ND

Home | Current Version | Previous Version | Graphics & Text | Print | Product List | Glossary On
Versions: 1 2 3 4 5 6 7 8 9 10 11 12 13 14 15 16 17 18 19 20 21 22 23 24 25 26 27 28 29 30 31 32 33 34 35 36 37 38 39 40 41 42 43 44 45 46 47 48 49 50
000
FPUS83 KFGF 041310
OPUFGF
PRAIRIE TO PINES WEATHER ROUNDUP
NATIONAL WEATHER SERVICE EASTERN NORTH DAKOTA/GRAND FORKS ND
800 AM CDT MON MAY 04 2015

 **SATELLITE DATA USED TO AUGMENT SKY COVER AT AUTOMATED STATIONS**
 *****  WEATHER ACROSS EASTERN NORTH DAKOTA  *****

CITY           SKY/WX    TMP DP  RH WIND       PRES   REMARKS
GRAND FORKS    MOSUNNY   44  36  73 N3        30.20R
GRAND FORKS AF SUNNY     44  35  72 N3        30.20R
GRAND CITY NWS   N/A     43 N/A N/A N1          N/A
BUXTON         NOT AVBL
DEVILS LAKE    SUNNY     45  36  70 CALM      30.19R
FARGO          PTSUNNY   47  31  53 NE5       30.19R
WAHPETON ARPT  PTSUNNY   45  30  57 N5        30.19R
$$

 *****  WEATHER ACROSS CENTRAL AND WESTERN NORTH DAKOTA  *****

CITY           SKY/WX    TMP DP  RH WIND       PRES   REMARKS
JAMESTOWN      CLOUDY    43  30  60 N7        30.19R
BISMARCK       CLOUDY    39  30  70 NE3       30.21R
MINOT          SUNNY     40  30  67 SE3       30.17R
MINOT AFB      SUNNY     41  35  80 S2        30.16R
GARRISON         N/A     40  33  76 CALM      30.18R
WILLISTON      MOSUNNY   40  27  59 NE5       30.16R
DICKINSON      PTSUNNY   42  30  62 SE9       30.17R
HETTINGER      CLOUDY    44  27  51 SE6       30.20R
$$

 *****  OTHER OBSERVATIONS NORTHEAST NORTH DAKOTA  *****

CITY           SKY/WX    TMP DP  RH WIND       PRES   REMARKS
WALHALLA       FAIR      46  41  81 SW3       30.19R
LANGDON        FAIR      45  37  76 S8        30.19R
CAVALIER       FAIR      45  37  76 S5        30.20R
GRAFTON        FAIR      45  37  76 CALM      30.21R
CANDO          FAIR      39  32  75 CALM      30.20R
FORT TOTTEN      N/A     45  39  80 SE2       29.95S
ROLLA          NOT AVBL
RUGBY          NOT AVBL
 ***** THE ABOVE OBSERVATIONS ARE NON NWS ARE NOT QUALITY
        CONTROLLED AND MAY MIS-REPORT RAIN FOR SNOW...
$$

 *****  OTHER OBSERVATIONS SOUTHEAST NORTH DAKOTA *****

CITY           SKY/WX    TMP DP  RH WIND       PRES   REMARKS
COOPERSTOWN    NOT AVBL
VALLEY CITY    FAIR      41  36  81 N3        30.20R
OAKES            N/A     41  32  70 NW3       30.19R
GWINNER        SUNNY     48  30  49 N6        30.20R
BUFFALO        NOT AVBL
WYNDMERE       NOT AVBL
 ***** THE ABOVE OBSERVATIONS ARE NON NWS ARE NOT QUALITY
       CONTROLLED AND MAY MIS-REPORT RAIN FOR SNOW...
$$

  *****  WEATHER ACROSS NORTHERN MINNESOTA  *****

CITY           SKY/WX    TMP DP  RH WIND       PRES   REMARKS
FLAG ISLAND    SUNNY     43  36  75 NW7       30.18R
WARROAD        SUNNY     41  37  87 W5        30.19R
ROSEAU         SUNNY     41  36  81 CALM      30.20R
HALLOCK        SUNNY     43  34  70 CALM      30.20R
THF RVR FALLS  SUNNY     45  36  70 SE3       30.21R
HALSTAD        NOT AVBL
FOSSTON        SUNNY     48  34  57 CALM      30.21
BAUDETTE       SUNNY     43  38  82 W6        30.19R
WASKISH        SUNNY     45  39  81 CALM      30.19R
CROOKSTON      SUNNY     48  37  66 E3        30.21R
$$
  *****  WEATHER ACROSS CENTRAL AND WEST MINNESOTA  *****

CITY           SKY/WX    TMP DP  RH WIND       PRES   REMARKS
BEMIDJI        SUNNY     42  37  83 CALM      30.19R
PARK RAPIDS    MOSUNNY   49  38  65 N3        30.19R
WADENA         MOSUNNY   45  36  70 CALM      30.20R
DETROIT LAKES  MOSUNNY   48  37  66 E3        30.21R
MOORHEAD       PTSUNNY   46  32  57 E5        30.20R
FERGUS FALLS   PTSUNNY   48  36  61 CALM      30.20R
ELBOW LAKE     FAIR      52  38  58 E5        30.18R
MORRIS MN      MOSUNNY   48  34  57 CALM      30.17S
STAPLES        SUNNY     43  36  75 CALM      30.19R
WHEATON        MOSUNNY   46  34  61 CALM      30.20S
$$
  *****  WEATHER ELSEWHERE ACROSS MINNESOTA  *****

CITY           SKY/WX    TMP DP  RH WIND       PRES   REMARKS
DULUTH         SUNNY     50  37  61 NW9       30.14R
INTRNTL FALLS  SUNNY     44  37  76 NW10      30.16R
ELY            SUNNY     45  37  76 NW6       30.13R
CLOQUET        SUNNY     48  36  61 NW7       30.15R
BRAINERD       SUNNY     49  42  77 N3        30.19R
HIBBING        SUNNY     48  37  65 N13       30.15R
ALEXANDRIA     MOSUNNY   51  36  56 E7        30.19R
SAINT CLOUD    SUNNY     48  37  65 N5        30.16R
MINNEAPOLIS    MOSUNNY   55  36  48 VRB7      30.13R
$$

  *****  WEATHER ACROSS SOUTH DAKOTA  *****

CITY           SKY/WX    TMP DP  RH WIND       PRES   REMARKS
SIOUX FALLS    PTSUNNY   50  30  46 NE8       30.14R
BROOKINGS      SUNNY     50  28  43 NE5       30.16S
WATERTOWN      SUNNY     46  32  58 N5        30.16S
HURON          SUNNY     44  30  57 NW5       30.17R
SISSETON         N/A     49  31  49 N6        30.17S
ABERDEEN       SUNNY     46  31  55 N5        30.19S
MITCHELL       SUNNY     48  34  58 NE9       30.16R
PIERRE         CLOUDY    49  27  42 CALM      30.18R
MOBRIDGE       CLOUDY    48  30  49 CALM      30.18R
RAPID CITY     RAIN      44  41  89 W5        30.21R FOG
$$

  *****  SOME WEATHER IN NEARBY STATES *****

CITY           SKY/WX    TMP DP  RH WIND       PRES   REMARKS
GLASGOW MT     SUNNY     43  24  47 E15       30.06S
GREAT FALLS MT CLEAR     37  28  70 CALM      29.95R
CHEYENNE WY    CLOUDY    45  38  76 S12       30.14R
SCOTTSBLUFF NE CLOUDY    51  38  60 E8        30.13R
OMAHA NE       CLOUDY    59  49  69 N14       30.04F
DES MOINES IA  CLOUDY    64  56  75 NE13G20   29.99R
DAVENPORT IA   CLOUDY    63  58  83 S15       30.00S
CHICAGO IL     CLOUDY    62  55  77 W3        30.02R
EAU CLAIRE WI  MOSUNNY   55  38  52 N9        30.10R
LA CROSSE WI   PTSUNNY   58  50  75 N9        30.06R
$$

  *****  SOME NATIONAL WEATHER *****

CITY           SKY/WX    TMP DP  RH WIND       PRES   REMARKS
LA GUARDIA NY  MOSUNNY   61  49  64 NE5       30.21S
RALEIGH NC     MOSUNNY   66  57  72 SW8       30.31S
ATLANTA GA     MOSUNNY   65  51  60 S3        30.29R
NEW ORLEANS LA PTSUNNY   73  65  75 SE8       30.14R
OKLAHOMA CITY  PTSUNNY   63  57  81 S10       30.04R
ALBUQUERQUE NM MOCLDY    56  39  53 SE13      30.05R
SALT LAKE CITY MOCLDY    58  43  57 S6        29.94R
LOS ANGELES CA PTCLDY    56  52  86 S8        29.93R
BOISE ID       PTCLDY    51  32  48 CALM      29.86R
SEATTLE WA     PTCLDY    45  41  86 S7        29.89S
$$

*** WEATHER ACROSS MANITOBA...SASKATCHEWAN AND ONTARIO ***
                ***ONTARIO***

CITY           SKY/WX    TMP DP  RH WIND       PRES   REMARKS
GERALDTON      PTSUNNY   43  37  81 NW5       29.99R
THUNDER BAY    SUNNY     52  39  62 NW6       30.06R
SIOUX LOOKOUT  CLOUDY    41  39  93 NW7       30.13R
TORONTO        PTSUNNY   68  46  45 SW8       30.04F
BIG TROUT LK   CLOUDY    32  30  93 SW5       29.98F
PICKLE LAKE    PTSUNNY   37  34  87 NW6       30.06R
DRYDEN         CLOUDY    39  37  93 NW6       30.14R
KENORA         MOSUNNY   39  36  87 N3        30.17R
$$
                *** MANITOBA***

CITY           SKY/WX    TMP DP  RH WIND       PRES   REMARKS
BRANDON        SUNNY     39  32  75 W5        30.18R
DAUPHIN        SUNNY     45  36  70 W9        30.16R
ISLAND LAKE    CLOUDY    36  30  80 W12G22    30.04R
PILOT MOUND      N/A     41  32  70 SW5         N/A
THE PAS        MOSUNNY   36  27  69 NW8       30.15R
THOMPSON       FLURRIES  30  28  93 W3        30.02S
WINNIPEG       MOSUNNY   45  39  81 S7        30.20R
LYNN LAKE      FLURRIES  28  19  69 W13       30.04S WCI  18
CHURCHILL      PTSUNNY   23  18  80 W14       29.90F WCI  11
GILLAM         MOSUNNY   28  21  74 N10       29.99R WCI  19
$$
                ***SASKATCHEWAN***

CITY           SKY/WX    TMP DP  RH WIND       PRES   REMARKS
ESTEVAN        MOSUNNY   41  36  81 E2        30.17R
KINDERSLEY     NOT AVBL
LLOYDMINSTER   CLOUDY    37  34  87 S3        30.05S
PRINCE ALBERT  MOSUNNY   36  28  75 E5        30.14R
REGINA         MOSUNNY   37  32  81 SE6       30.15R
YORKTON        SUNNY     41  37  87 CALM      30.15R


USA.gov is the U.S. government's official web portal to all federal, state and local government web resources and services.